Kleine Brogel, Belgium

3:27 PM CEST on August 28, 2016 (GMT +0200)
Kleine-Brogel Air Base

Weather History for EBBL - November, 2013

Change the Weather History Date:

Monday, November 18, 2013

  Actual Average Record
Temperature  
Mean Temperature 38 °F -  
Max Temperature 41 °F 42 °F 59 °F (2015)
Min Temperature 34 °F 36 °F 24 °F (2007)
Degree Days  
Heating Degree Days 28    
Moisture  
Dew Point 37 °F    
Average Humidity 93    
Maximum Humidity 100    
Minimum Humidity 80    
Precipitation  
Precipitation 0.00 in - - ()
Sea Level Pressure  
Sea Level Pressure 29.87 in    
Wind  
Wind Speed 4 mph ()    
Max Wind Speed 9 mph    
Max Gust Speed -    
Visibility 2.9 miles    
Events      
Averages and records for this station are not official NWS values.
T = Trace of Precipitation, MM = Missing Value Source: Averaged Metar Reports

Daily Weather History Graph

Daily Weather History Graph

Search for Another Location

Airport or City:

Trip Planner

Search our weather history database for the weather conditions in past years. The results will help you decide how hot, cold, wet, or windy it might be!

Date:

Astronomy

Nov. 18, 2013 Rise Set
Actual Time 8:00 AM CET 4:46 PM CET
Civil Twilight 7:22 AM CET 5:23 PM CET
Nautical Twilight 6:42 AM CET 6:03 PM CET
Astronomical Twilight 6:03 AM CET 6:42 PM CET
Moon 5:34 PM CET (11/18) 8:35 AM CET (11/18)
Length of Visible Light 10h 00m
Length of Day
8h 45m
Full, 99% of the Moon is Illuminated
Nov 18
Full
Nov 25
Last Quarter
Dec 3
New
Dec 9
First Quarter
Dec 17
Full

Hourly Weather History & Observations

Time (CET) Temp. Windchill Dew Point Humidity Pressure Visibility Wind Dir Wind Speed Gust Speed Precip Events Conditions
12:25 AM 35.6 °F - 35.6 °F 100% 30.06 in 1.6 mi Variable 1.2 mph - N/A   Mostly Cloudy
12:55 AM 35.6 °F - 35.6 °F 100% 30.04 in 1.2 mi Variable 1.2 mph - N/A   Mostly Cloudy
1:00 AM 35 °F - 35 °F 100% 30.06 in 1 mi 2.2 mph - -   Mist
1:25 AM 35.6 °F - 35.6 °F 100% 30.04 in 1.2 mi Variable 1.2 mph - N/A   Mostly Cloudy
1:55 AM 37.4 °F - 37.4 °F 100% 30.01 in 1.9 mi Variable 2.3 mph - N/A   Mostly Cloudy
2:25 AM 37.4 °F 33.8 °F 37.4 °F 100% 30.01 in 1.9 mi South 4.6 mph - N/A   Mostly Cloudy
2:55 AM 37.4 °F 34.9 °F 37.4 °F 100% 29.98 in 3.1 mi ESE 3.5 mph - N/A   Mostly Cloudy
3:25 AM 37.4 °F 34.9 °F 37.4 °F 100% 29.98 in 3.1 mi SE 3.5 mph - N/A   Mostly Cloudy
3:55 AM 39.2 °F 37.0 °F 37.4 °F 93% 29.98 in 3.1 mi SSE 3.5 mph - N/A   Overcast
4:00 AM 38 °F - 38 °F 99% 29.99 in 3 mi 2.2 mph - -   Mist
4:25 AM 39.2 °F 37.0 °F 37.4 °F 93% 29.95 in 3.1 mi South 3.5 mph - N/A   Overcast
4:54 AM 39.2 °F - 37.4 °F 93% 29.95 in 2.8 mi Variable 2.3 mph - N/A   Overcast
4:55 AM 39.2 °F 37.0 °F 37.4 °F 93% 29.95 in 2.8 mi South 3.5 mph - N/A   Overcast
5:24 AM 39.2 °F 37.0 °F 37.4 °F 93% 29.95 in 1.9 mi SSW 3.5 mph - N/A   Overcast
5:25 AM 39.2 °F - 37.4 °F 93% 29.92 in 1.9 mi Variable 2.3 mph - N/A   Overcast
5:55 AM 37.4 °F - 37.4 °F 100% 29.92 in 1.9 mi Variable 2.3 mph - N/A   Overcast
6:23 AM 37.4 °F - 37.4 °F 100% 29.92 in 1.9 mi Variable 1.2 mph - N/A   Overcast
6:25 AM 37.4 °F - 37.4 °F 100% 29.92 in 1.9 mi Variable 1.2 mph - N/A   Overcast
6:55 AM 37.4 °F - 37.4 °F 100% 29.89 in 1.9 mi Variable 1.2 mph - N/A   Mostly Cloudy
7:00 AM 38 °F - 38 °F 100% 29.92 in 2 mi 2.2 mph - -   Mist
7:04 AM 37.4 °F - 37.4 °F 100% 29.89 in 2.5 mi Variable 1.2 mph - N/A   Mostly Cloudy
7:25 AM 37.4 °F - 37.4 °F 100% 29.89 in - Variable 1.2 mph - N/A   Mostly Cloudy
7:43 AM 37.4 °F - 37.4 °F 100% 29.89 in 1.9 mi Variable 1.2 mph - N/A   Mostly Cloudy
7:54 AM 37.4 °F - 37.4 °F 100% 29.89 in 1.9 mi Variable 1.2 mph - N/A   Mostly Cloudy
7:55 AM 39.2 °F - 37.4 °F 93% 29.89 in 1.9 mi Variable 1.2 mph - N/A   Mostly Cloudy
8:25 AM 39.2 °F - 37.4 °F 93% 29.89 in - Variable 2.3 mph - N/A   Mostly Cloudy
8:55 AM 39.2 °F 37.0 °F 39.2 °F 100% 29.89 in - Variable 3.5 mph - N/A   Mostly Cloudy
9:25 AM 39.2 °F 37.0 °F 39.2 °F 100% 29.89 in - Variable 3.5 mph - N/A   Mostly Cloudy
9:55 AM 39.2 °F 35.9 °F 39.2 °F 100% 29.89 in - SW 4.6 mph - N/A   Mostly Cloudy
10:00 AM 39 °F - 38 °F 96% 29.90 in 2 mi SW 4.5 mph - -   Mist
10:13 AM 39.2 °F 37.0 °F 37.4 °F 93% 29.89 in 2.2 mi SSW 3.5 mph - N/A   Mostly Cloudy
10:25 AM 39.2 °F 35.9 °F 39.2 °F 100% 29.89 in 2.2 mi SW 4.6 mph - N/A   Mostly Cloudy
10:55 AM 39.2 °F 35.9 °F 39.2 °F 100% 29.89 in 2.2 mi SW 4.6 mph - N/A   Mostly Cloudy
11:25 AM 41.0 °F 38.0 °F 39.2 °F 93% 29.86 in 2.2 mi SW 4.6 mph - N/A   Mostly Cloudy
11:55 AM 41.0 °F 37.1 °F 39.2 °F 93% 29.86 in - SW 5.8 mph - N/A   Mostly Cloudy
12:25 PM 41.0 °F 37.1 °F 39.2 °F 93% 29.86 in - SW 5.8 mph - N/A   Mostly Cloudy
12:55 PM 41.0 °F 36.4 °F 39.2 °F 93% 29.86 in - SW 6.9 mph - N/A   Mostly Cloudy
1:00 PM 41 °F - 39 °F 90% 29.87 in 2 mi SW 6.7 mph - -   Mist
1:25 PM 41.0 °F 37.1 °F 39.2 °F 93% 29.86 in 2.2 mi SW 5.8 mph - N/A   Mostly Cloudy
1:55 PM 41.0 °F 36.4 °F 39.2 °F 93% 29.83 in 2.2 mi SW 6.9 mph - N/A   Mostly Cloudy
2:25 PM 41.0 °F 37.1 °F 39.2 °F 93% 29.83 in 2.2 mi SW 5.8 mph - N/A   Mostly Cloudy
2:52 PM 41.0 °F 36.4 °F 39.2 °F 93% 29.83 in 2.2 mi SW 6.9 mph - N/A   Mostly Cloudy
2:55 PM 41.0 °F 36.4 °F 39.2 °F 93% 29.83 in 2.2 mi SW 6.9 mph - N/A   Mostly Cloudy
3:25 PM 41.0 °F 37.1 °F 39.2 °F 93% 29.83 in 2.2 mi SW 5.8 mph - N/A   Mostly Cloudy
3:55 PM 41.0 °F 37.1 °F 39.2 °F 93% 29.80 in 2.2 mi SW 5.8 mph - N/A   Mostly Cloudy
4:00 PM 42 °F - 39 °F 83% 29.83 in 2 mi SW 4.5 mph - -   Mist
4:25 PM 41.0 °F 36.4 °F 39.2 °F 93% 29.80 in 1.9 mi SSW 6.9 mph - N/A   Mostly Cloudy
4:42 PM 41.0 °F 36.4 °F 39.2 °F 93% 29.80 in 2.5 mi SSW 6.9 mph - N/A   Mostly Cloudy
4:55 PM 41.0 °F 38.0 °F 39.2 °F 93% 29.80 in 2.5 mi SW 4.6 mph - N/A   Mostly Cloudy
5:25 PM 41.0 °F 36.4 °F 39.2 °F 93% 29.80 in - SSW 6.9 mph - N/A   Mostly Cloudy
5:50 PM 41.0 °F 36.4 °F 37.4 °F 87% 29.80 in 3.1 mi SSW 6.9 mph - N/A   Mostly Cloudy
5:55 PM 41.0 °F 37.1 °F 37.4 °F 87% 29.80 in 3.1 mi SSW 5.8 mph - N/A   Mostly Cloudy
6:25 PM 41.0 °F 36.4 °F 39.2 °F 93% 29.80 in 3.7 mi SSW 6.9 mph - N/A   Mostly Cloudy
6:55 PM 41.0 °F 36.4 °F 37.4 °F 87% 29.83 in 4.3 mi SSW 6.9 mph - N/A   Mostly Cloudy
7:00 PM 41 °F - 38 °F 85% 29.83 in 4 mi SSW 6.7 mph - -   Mostly Cloudy
7:24 PM 41.0 °F 35.2 °F 37.4 °F 87% 29.80 in 4.3 mi SW 9.2 mph - N/A   Mostly Cloudy
7:25 PM 41.0 °F 35.2 °F 37.4 °F 87% 29.83 in 4.3 mi SW 9.2 mph - N/A   Mostly Cloudy
7:55 PM 41.0 °F 36.4 °F 37.4 °F 87% 29.80 in 4.3 mi SW 6.9 mph - N/A   Mostly Cloudy
8:25 PM 41.0 °F 35.8 °F 35.6 °F 81% 29.80 in 4.3 mi SW 8.1 mph - N/A   Mostly Cloudy
8:55 PM 39.2 °F 33.6 °F 35.6 °F 87% 29.80 in 4.3 mi SW 8.1 mph - N/A   Mostly Cloudy
9:20 PM 39.2 °F 34.2 °F 35.6 °F 87% 29.80 in 5.0 mi SW 6.9 mph - N/A   Mostly Cloudy
9:25 PM 39.2 °F 34.2 °F 35.6 °F 87% 29.80 in 5.0 mi SW 6.9 mph - N/A   Mostly Cloudy
9:55 PM 39.2 °F 34.2 °F 35.6 °F 87% 29.80 in 5.0 mi SW 6.9 mph - N/A   Mostly Cloudy
10:00 PM 39 °F - 35 °F 80% 29.81 in 5 mi SW 6.7 mph - -   Mostly Cloudy
10:03 PM 39.2 °F 34.2 °F 35.6 °F 87% 29.80 in 4.3 mi SW 6.9 mph - N/A   Mostly Cloudy
10:25 PM 39.2 °F 33.6 °F 33.8 °F 81% 29.80 in 4.3 mi SW 8.1 mph - N/A   Mostly Cloudy
10:54 PM 39.2 °F 34.2 °F 33.8 °F 81% 29.77 in 5.0 mi SSW 6.9 mph - N/A   Mostly Cloudy
10:55 PM 39.2 °F 34.2 °F 35.6 °F 87% 29.77 in 5.0 mi SW 6.9 mph - N/A   Mostly Cloudy
11:25 PM 37.4 °F 32.1 °F 33.8 °F 87% 29.77 in 5.0 mi SW 6.9 mph - N/A   Mostly Cloudy
11:55 PM 37.4 °F 33.8 °F 33.8 °F 87% 29.77 in 5.0 mi SSW 4.6 mph - N/A   Mostly Cloudy